This demonstration page uses our WeatherBlox Daily Observations layout. Learn more.

Hourly Observations for August 16, 2016

Temp ( °F °C ) Dew Point ( °F °C ) Humidity (%) Winds ( mph kmh ) Pressure ( in mb ) Visibility ( mi km ) Precip ( " mm )
12:15 am 00:15 Clear 71 21.5 61 16.2 72 72 SSE 10 17 29.94 1014 10 16.09344 0 0
12:35 am 00:35 Clear 71 21.5 61 16.3 72 72 SSE 10 17 29.94 1014 10 16.09344 0 0
12:55 am 00:55 Clear 70 21.1 62 16.5 75 75 SSE 10 17 29.94 1014 10 16.09344 0 0
1:15 am 01:15 Clear with Nearby Thunderstorms 70 21.3 62 16.5 74 74 S 9 15 29.94 1014 10 16.09344 0 0
1:35 am 01:35 Clear 70 21.1 62 16.5 75 75 SSE 9 15 29.94 1014 10 16.09344 0 0
1:55 am 01:55 Clear 70 21 62 16.5 76 76 S 8 13 29.94 1014 10 16.09344 0 0
2:15 am 02:15 Clear 69 20.6 62 16.6 78 78 SSE 7 11 29.94 1014 10 16.09344 0 0
2:35 am 02:35 Clear 67 19.6 62 16.6 83 83 SSE 8 13 29.97 1015 10 16.09344 0 0
2:55 am 02:55 Clear 67 19.6 62 16.7 83 83 S 5 7 29.97 1015 10 16.09344 0 0
3:15 am 03:15 Clear 67 19.5 62 16.6 83 83 S 3 6 29.97 1015 10 16.09344 0 0
3:35 am 03:35 Clear 66 18.9 62 16.8 88 88 N 3 6 30 1016 10 16.09344 0 0
3:55 am 03:55 Clear 67 19.2 62 16.7 86 86 S 6 9 29.97 1015 10 16.09344 0 0
4:15 am 04:15 Clear 65 18.1 61 16.1 88 88 NNE 3 6 29.97 1015 10 16.09344 0 0
4:35 am 04:35 Clear 63 17 60 15.7 92 92 E 6 9 29.97 1015 10 16.09344 0 0
4:55 am 04:55 Clear 62 16.9 60 15.4 91 91 SE 8 13 29.97 1015 10 16.09344 0 0
5:15 am 05:15 Clear 64 17.5 61 15.9 90 90 SE 7 11 29.94 1014 10 16.09344 0 0
5:35 am 05:35 Clear 63 17 60 15.6 92 92 SSE 8 13 29.94 1014 10 16.09344 0 0
5:55 am 05:55 Clear 63 17.4 60 15.8 90 90 SSE 6 9 29.94 1014 10 16.09344 0 0
6:15 am 06:15 Clear 63 17.2 60 15.8 92 92 SSE 6 9 29.94 1014 10 16.09344 0 0
6:35 am 06:35 Clear 63 17.2 60 15.7 91 91 S 6 9 29.94 1014 10 16.09344 0 0
6:55 am 06:55 Sunny 62 16.9 60 15.5 92 92 Calm 29.94 1014 10 16.09344 0 0
7:15 am 07:15 Sunny 63 17.1 60 15.6 91 91 S 5 7 29.94 1014 10 16.09344 0 0
7:35 am 07:35 Sunny 63 17.3 60 15.6 90 90 S 3 6 29.94 1014 10 16.09344 0 0
7:55 am 07:55 Sunny 64 17.5 61 15.9 90 90 S 5 7 29.94 1014 10 16.09344 0 0
8:15 am 08:15 Sunny 65 18.5 61 16.1 86 86 SSW 3 6 29.97 1015 10 16.09344 0 0
8:35 am 08:35 Sunny 67 19.7 62 16.6 82 82 W 6 9 29.97 1015 10 16.09344 0 0
8:55 am 08:55 Sunny 68 20.1 63 17.1 83 83 N 7 11 29.97 1015 10 16.09344 0 0
9:15 am 09:15 Sunny 68 19.8 62 16.7 82 82 NNE 8 13 30 1016 10 16.09344 0 0
9:35 am 09:35 Sunny 69 20.6 62 16.9 79 79 NE 7 11 29.94 1014 10 16.09344 0 0
9:55 am 09:55 Sunny 70 21.2 63 17 77 77 NNE 8 13 29.97 1015 10 16.09344 0 0
10:15 am 10:15 Sunny 72 22 63 17.1 74 74 NE 9 15 29.97 1015 10 16.09344 0 0
10:35 am 10:35 Sunny 72 22.4 63 17.1 72 72 NNE 6 9 29.97 1015 10 16.09344 0 0
10:55 am 10:55 Sunny 73 22.8 63 17.1 70 70 NE 6 9 29.97 1015 10 16.09344 0 0
11:15 am 11:15 Sunny 74 23.1 63 17 69 69 N 8 13 29.97 1015 10 16.09344 0 0
11:35 am 11:35 Sunny 75 23.9 63 17.3 67 67 NNE 8 13 29.94 1014 10 16.09344 0 0
11:55 am 11:55 Sunny 76 24.2 62 16.9 64 64 ENE 8 13 29.94 1014 10 16.09344 0 0
12:15 pm 12:15 Sunny 76 24.5 63 17.2 64 64 Calm 29.94 1014 10 16.09344 0 0
12:35 pm 12:35 Sunny 78 25.6 63 17.2 60 60 NNE 6 9 29.94 1014 10 16.09344 0 0
12:55 pm 12:55 Sunny 78 25.8 63 17.3 59 59 NNE 6 9 29.94 1014 10 16.09344 0 0
1:15 pm 13:15 Sunny 80 26.4 64 17.6 59 59 N 6 9 29.94 1014 10 16.09344 0 0
1:35 pm 13:35 Sunny 80 26.9 64 17.5 56 56 N 5 7 29.94 1014 10 16.09344 0 0
1:55 pm 13:55 Sunny 81 27.2 63 17.2 54 54 NE 3 6 29.94 1014 10 16.09344 0 0
2:15 pm 14:15 Sunny 82 27.9 63 17.1 52 52 NNE 6 9 29.91 1013 10 16.09344 0 0
2:35 pm 14:35 Sunny 82 27.8 64 17.8 55 55 ENE 3 6 29.91 1013 10 16.09344 0 0
2:55 pm 14:55 Sunny 82 28 64 17.6 53 53 ENE 6 9 29.91 1013 10 16.09344 0 0
3:15 pm 15:15 Sunny 83 28.3 64 17.5 52 52 N 5 7 29.91 1013 10 16.09344 0 0
3:35 pm 15:35 Sunny 84 29 64 17.6 50 50 NE 6 9 29.91 1013 10 16.09344 0 0
3:55 pm 15:55 Sunny 84 29 64 17.7 51 51 E 7 11 29.91 1013 10 16.09344 0 0
4:15 pm 16:15 Sunny 85 29.2 63 17.3 49 49 ENE 9 15 29.88 1012 10 16.09344 0 0
4:35 pm 16:35 Sunny 85 29.4 63 17.4 48 48 NE 7 11 29.88 1012 7 11.265408 0 0
4:55 pm 16:55 Sunny 85 29.3 63 17.2 48 48 ENE 5 7 29.91 1013 10 16.09344 0 0
5:15 pm 17:15 Sunny 85 29.5 62 16.8 46 46 E 6 9 29.88 1012 10 16.09344 0 0
5:35 pm 17:35 Sunny 85 29.5 62 16.6 46 46 ENE 6 9 29.88 1012 10 16.09344 0 0
5:55 pm 17:55 Sunny 85 29.5 62 16.8 46 46 E 6 9 29.88 1012 10 16.09344 0 0
6:15 pm 18:15 Sunny 84 29 63 17 48 48 ENE 6 9 29.88 1012 10 16.09344 0 0
6:35 pm 18:35 Sunny 84 28.7 62 16.7 48 48 E 5 7 29.88 1012 10 16.09344 0 0
6:55 pm 18:55 Sunny 83 28.5 63 17.4 51 51 E 6 9 29.88 1012 10 16.09344 0 0
7:15 pm 19:15 Sunny 83 28.1 64 17.9 54 54 ESE 6 9 29.88 1012 10 16.09344 0 0
7:35 pm 19:35 Sunny 81 27.3 66 18.8 60 60 E 3 6 29.94 1014 10 16.09344 0 0
7:55 pm 19:55 Sunny 80 26.6 66 19.1 64 64 Calm 29.94 1014 10 16.09344 0 0
8:15 pm 20:15 Sunny 78 25.5 67 19.3 69 69 Calm 29.94 1014 10 16.09344 0 0
8:35 pm 20:35 Clear 75 24 68 20 78 78 Calm 29.94 1014 10 16.09344 0 0
8:55 pm 20:55 Clear 72 22.3 67 19.7 85 85 Calm 29.97 1015 10 16.09344 0 0
9:15 pm 21:15 Clear 71 21.6 67 19.3 87 87 NNE 5 7 29.97 1015 10 16.09344 0 0
9:35 pm 21:35 Clear 70 21.2 67 19.4 90 90 NNE 5 7 30 1016 7 11.265408 0 0
9:55 pm 21:55 Clear 71 21.5 67 19.2 87 87 Calm 30 1016 10 16.09344 0 0
10:15 pm 22:15 Clear 68 20 65 18.2 89 89 Calm 30.03 1017 10 16.09344 0 0
10:35 pm 22:35 Clear 68 20.2 65 18.4 89 89 Calm 30.03 1017 10 16.09344 0 0
10:55 pm 22:55 Clear 67 19.6 64 17.9 90 90 Calm 30.03 1017 10 16.09344 0 0
11:15 pm 23:15 Clear 68 20 65 18.4 91 91 Calm 30.03 1017 10 16.09344 0 0
11:35 pm 23:35 Clear 66 19.1 63 17.4 90 90 Calm 30.03 1017 10 16.09344 0 0
11:55 pm 23:55 Clear 67 19.4 64 18 92 92 Calm 30.03 1017 10 16.09344 0 0

Powered by AerisWeather